Regional Weather Roundup
Issued by NWS

Home | Current Version | Previous Version | Graphics & Text | Print | Product List | Glossary On
Versions: 1 2 3 4 5 6 7 8 9 10 11 12 13 14 15 16 17 18 19 20 21 22 23 24 25 26 27 28 29 30 31 32 33 34 35 36 37 38 39 40 41 42 43 44 45 46 47 48 49 50
000
ASUS44 KMEG 201800
RWRTN
TENNESSEE HOURLY STATE WEATHER ROUNDUP
NATIONAL WEATHER SERVICE MEMPHIS TN
100 PM CDT WED AUG 20 2014

TNZ002-004-019-021-049-052-054-088>092-201900-
WEST TENNESSEE

CITY           SKY/WX    TMP DP  RH WIND       PRES   REMARKS
MEMPHIS INTL   MOSUNNY   93  71  48 SW12G23   30.03S HX 100
NWS MEMPHIS      N/A     92 N/A N/A MISG        N/A
JACKSON        SUNNY     92  75  57 SW10      30.03R HX 103
DYERSBURG      SUNNY     91  70  49 SW7       30.02S HX  97
UNION CITY     SUNNY     90  79  70 NW5       30.00R HX 105
PARIS          SUNNY     90  75  62 W7        30.02R HX 100
SAVANNAH       SUNNY     91  77  62 VRB6      30.04S HX 105
$$

TNZ008-025-027-028-033-062-065-066-201900-
NORTH MIDDLE TENNESSEE

CITY           SKY/WX    TMP DP  RH WIND       PRES   REMARKS
NASHVILLE      PTSUNNY   94  74  52 W8        30.00R HX 104
CLARKSVILLE    PTSUNNY   94  73  50 NW10      29.99R HX 103
COOKEVILLE     MOSUNNY   88  79  74 SW9       30.04S HX 102
CROSSVILLE     SUNNY     85  71  63 W8        30.09F HX  90
$$

TNZ061-075-076-078-094-096-097-201900-
SOUTH MIDDLE TENNESSEE

CITY           SKY/WX    TMP DP  RH WIND       PRES   REMARKS
WINCHESTER     MOSUNNY   90  77  66 W6        30.06R HX 102
SHELBYVILLE    MOSUNNY   91  79  66 SW12      30.05R HX 107
$$

TNZ017-018-042-046-047-201900-
NORTHEAST TENNESSEE

CITY           SKY/WX    TMP DP  RH WIND       PRES   REMARKS
TRI CITIES     MOSUNNY   79  66  64 S5        30.08S
ELIZABETHTON   MOCLDY    79  64  61 CALM      30.08S
$$

TNZ012-013-036-069-073-074-201900-
CENTRAL EAST TENNESSEE

CITY           SKY/WX    TMP DP  RH WIND       PRES   REMARKS
KNOXVILLE      PTSUNNY   86  74  67 SW10      30.03F HX  94
OAK RIDGE      MOSUNNY   87  74  64 VRB3      30.04F HX  95
GATLINBURG     PTCLDY    91  72  52 W8        30.03S HX  98
$$

TNZ083-085-099-201900-
SOUTHEAST TENNESSEE

CITY           SKY/WX    TMP DP  RH WIND       PRES   REMARKS
CHATTANOOGA    MOSUNNY   91  73  55 SW7       30.04F HX  99
$$

SKY/WX REPORTED AS FAIR MEANS FEW OR NO CLOUDS BELOW
12 THOUSAND FEET.




USA.gov is the U.S. government's official web portal to all federal, state and local government web resources and services.